Regional Weather Roundup
Issued by NWS

Home | Current Version | Previous Version | Text Only | Print | Product List | Glossary On
Versions: 1 2 3 4 5 6 7 8 9 10 11 12 13 14 15 16 17 18 19 20 21 22 23 24 25 26 27 28 29 30 31 32 33 34 35 36 37 38 39 40 41 42 43 44 45 46 47 48 49 50
000
ASUS44 KFWD 210615
RWRTX
NORTH TEXAS HOURLY WEATHER ROUNDUP
NATIONAL WEATHER SERVICE FORT WORTH TX
100 AM CDT FRI JUL 21 2017

NOTE: "FAIR" INDICATES FEW OR NO CLOUDS BELOW 12,000 FEET WITH NO
SIGNIFICANT WEATHER AND/OR OBSTRUCTIONS TO VISIBILITY.

TXZ118-119-210700-
DALLAS/FORT WORTH METROPLEX

CITY           SKY/WX    TMP DP  RH WIND       PRES   REMARKS
DFW AIRPORT    CLEAR     85  71  63 S6        30.00F HX  90
6HR MIN TEMP:  85; 6HR MAX TEMP:  97;

DALLAS LOVE    CLEAR     88  69  53 S9        30.01S HX  92
6HR MIN TEMP:  88; 6HR MAX TEMP:  96;

FTW MEACHAM    CLEAR     86  72  62 SE9       30.01F HX  92
6HR MIN TEMP:  86; 6HR MAX TEMP:  98;

DAL-EXECUTIVE  CLEAR     84  71  65 SE6       30.01F
6HR MIN TEMP:  84; 6HR MAX TEMP:  96;

FTW-ALLIANCE   CLEAR     84  71  65 S7        30.01F
6HR MIN TEMP:  84; 6HR MAX TEMP:  96;

FTW-NAS-JRB    CLEAR     87  70  56 S8        30.02S HX  92
6HR MIN TEMP:  87; 6HR MAX TEMP:  98;

FTW-SPINKS     CLEAR     82  70  66 SE5       30.04S
6HR MIN TEMP:  82; 6HR MAX TEMP:  98;

ARLINGTON      CLEAR     84  72  67 SE7       30.02S
6HR MIN TEMP:  84; 6HR MAX TEMP:  96;

GRAND PRAIRIE  CLEAR     85  69  58 SE6       30.03S
6HR MIN TEMP:  85; 6HR MAX TEMP:  96;

ADDISON        CLEAR     85  70  60 S8        30.04S
6HR MIN TEMP:  85; 6HR MAX TEMP:  95;

MESQUITE       CLEAR     79  73  81 CALM      30.02S
6HR MIN TEMP:  79; 6HR MAX TEMP:  94;

LANCASTER      CLEAR     79  71  77 CALM      30.03S
6HR MIN TEMP:  79; 6HR MAX TEMP:  95;

$$

TXZ091>094-102>105-117-120-121-131>134-210700-
NORTH CENTRAL TEXAS

CITY           SKY/WX    TMP DP  RH WIND       PRES   REMARKS
SHRMAN/DENISON CLEAR     82  71  70 S9        30.04S
6HR MIN TEMP:  82; 6HR MAX TEMP:  95;

GAINESVILLE    CLEAR     77  69  76 SE3       30.04F
6HR MIN TEMP:  77; 6HR MAX TEMP:  94;

BOWIE          CLEAR     82  70  68 SE5       30.03F
6HR MIN TEMP:  81; 6HR MAX TEMP:  95;

BRIDGEPORT     CLEAR     82  69  63 SE7       30.04S
6HR MIN TEMP:  82; 6HR MAX TEMP:  97;

DECATUR        CLEAR     83  70  64 SE9       30.04S
6HR MIN TEMP:  83; 6HR MAX TEMP:  97;

DENTON         CLEAR     82  71  69 SE5       30.01F
6HR MIN TEMP:  82; 6HR MAX TEMP:  97;

MCKINNEY       CLEAR     80  75  84 S5        30.02F
6HR MIN TEMP:  80; 6HR MAX TEMP:  94;

BONHAM         CLEAR     79  72  78 S5        30.02F
GREENVILLE     CLEAR     81  73  78 CALM      30.03S
ROCKWALL       CLEAR     83  72  70 S5        30.03S
6HR MIN TEMP:  82; 6HR MAX TEMP:  93;

TERRELL        CLEAR     82  72  71 CALM      30.02F
6HR MIN TEMP:  81; 6HR MAX TEMP:  95;

WAXAHACHIE     CLEAR     81  72  74 SE3       30.04S
6HR MIN TEMP:  81; 6HR MAX TEMP:  95;

CLEBURNE       CLEAR     82  72  69 S8        30.04F
GRANBURY       CLEAR     86  69  57 SE10      30.03S HX  90
6HR MIN TEMP:  86; 6HR MAX TEMP:  99;

$$

TXZ083>090-098>101-113>116-127>130-139>142-154-155-210700-
WESTERN NORTH TEXAS

CITY           SKY/WX    TMP DP  RH WIND       PRES   REMARKS
WICHITA FALLS  CLEAR     85  66  53 S14       30.00S
6HR MIN TEMP:  85; 6HR MAX TEMP:  98;

WF-KICKAPOO    CLEAR     86  67  53 SE14G22   30.03S
6HR MIN TEMP:  85; 6HR MAX TEMP:  99;

VERNON         CLEAR     86  60  41 S10       30.01R
6HR MIN TEMP:  86; 6HR MAX TEMP: 102;

ABILENE        CLEAR     82  63  52 SE13      30.04S
6HR MIN TEMP:  81; 6HR MAX TEMP:  96;

ABILENE-DYESS  PTCLDY    86  64  46 SE10      30.03S
6HR MIN TEMP:  83; 6HR MAX TEMP:  98;

GRAHAM         CLEAR     83  66  56 SE8       30.01S
6HR MIN TEMP:  83; 6HR MAX TEMP:  97;

BRECKENRIDGE   CLEAR     85  63  47 SE10      30.02F
6HR MIN TEMP:  84; 6HR MAX TEMP:  98;

CISCO          CLEAR     79  66  65 SE8       30.06S
EASTLAND       CLEAR     80  66  62 SE7       30.05S
6HR MIN TEMP:  80; 6HR MAX TEMP:  95;

RANGER         CLEAR     82  65  55 SE9       30.05S
6HR MIN TEMP:  69; 6HR MAX TEMP:  96;

MINERAL WELLS  CLEAR     81  70  69 SE9       30.01F
6HR MIN TEMP:  81; 6HR MAX TEMP:  96;

STEPHENVILLE   CLEAR     82  65  56 SE6       30.07F
6HR MIN TEMP:  82; 6HR MAX TEMP:  96;

COMANCHE       CLEAR     79  65  62 SE5       30.05S
6HR MIN TEMP:  79; 6HR MAX TEMP:  96;

BROWNWOOD      PTCLDY    82  64  54 SE6       30.04S
COLEMAN        PTCLDY    85  61  43 S8        30.05S
6HR MIN TEMP:  84; 6HR MAX TEMP:  97;

$$

TXZ143>147-156>162-174-175-210700-
CENTRAL TEXAS

CITY           SKY/WX    TMP DP  RH WIND       PRES   REMARKS
WACO           CLEAR     85  72  65 SE10      30.02S HX  91
6HR MIN TEMP:  85; 6HR MAX TEMP:  97;

WACO-MCGREGOR  CLEAR     84  71  65 S8        30.03S
6HR MIN TEMP:  84; 6HR MAX TEMP:  99;

HILLSBORO      CLEAR     83  71  66 SE8       30.03S
6HR MIN TEMP:  83; 6HR MAX TEMP:  97;

CORSICANA      CLEAR     83  74  74 S10       30.02F
6HR MIN TEMP:  83; 6HR MAX TEMP:  94;

MEXIA          CLEAR     80  72  76 S14       30.03S
6HR MIN TEMP:  80; 6HR MAX TEMP:  94;

HEARNE         CLEAR     81  75  83 SE5       30.04F
6HR MIN TEMP:  81; 6HR MAX TEMP:  96;

CAMERON        CLEAR     83  73  72 S8        30.03S
6HR MIN TEMP:  83; 6HR MAX TEMP:  97;

TEMPLE         CLEAR     84  73  69 S16G22    30.03F HX  90
6HR MIN TEMP:  84; 6HR MAX TEMP:  98;

KILLEEN        CLEAR     84  71  64 SE9       30.03S
6HR MIN TEMP:  84; 6HR MAX TEMP:  97;

KILLEEN-SKYLRK CLEAR     84  73  69 S10       30.04S HX  90
6HR MIN TEMP:  84; 6HR MAX TEMP:  98;

FORT HOOD      CLEAR     83  71  68 S9        30.01S
6HR MIN TEMP:  83; 6HR MAX TEMP:  98;

HAMILTON       CLEAR     82  66  57 SE8       30.05F
6HR MIN TEMP:  82; 6HR MAX TEMP:  98;

LAMPASAS       CLEAR     83  70  63 S6        30.04S
6HR MIN TEMP:  83; 6HR MAX TEMP:  98;

$$

TXZ095>097-106>112-122>126-135>138-148>153-164>167-210700-
EAST TEXAS

CITY           SKY/WX    TMP DP  RH WIND       PRES   REMARKS
PARIS            N/A     79  75  87 SE5         N/A
6HR MIN TEMP:  79; 6HR MAX TEMP:  94;

SULPHUR SPRNGS CLEAR     83  73  71 S3        30.04F
6HR MIN TEMP:  83; 6HR MAX TEMP:  94;

MOUNT PLEASANT CLEAR     80  75  84 CALM      30.04S
6HR MIN TEMP:  80; 6HR MAX TEMP:  95;

GILMER         CLEAR     82  75  79 CALM      30.03S
6HR MIN TEMP:  80; 6HR MAX TEMP:  92;

MINEOLA        CLEAR     77  73  88 SE3       30.03S
TYLER          CLEAR     81  75  82 SE5       30.03S
6HR MIN TEMP:  80; 6HR MAX TEMP:  94;

LONGVIEW       CLEAR     80  76  87 S6        30.02S
6HR MIN TEMP:  80; 6HR MAX TEMP:  94;

MARSHALL         N/A     75  72  88 MISG      30.05S
6HR MIN TEMP:  75; 6HR MAX TEMP:  92;

ATHENS         CLEAR     77  72  83 CALM      30.02S
PALESTINE      PTCLDY    80  73  79 CALM      30.04S
JACKSONVILLE   CLEAR     81  74  80 S3        30.07S
HENDERSON      CLEAR     77  74  92 CALM      30.04F
6HR MIN TEMP:  76; 6HR MAX TEMP:  93;

CENTER         CLEAR     82  80  96 CALM      30.04S FOG     HX  93
6HR MIN TEMP:  82; 6HR MAX TEMP:  95;

NACOGDOCHES      N/A     75  73  94 CALM      30.02S
6HR MIN TEMP:  75; 6HR MAX TEMP:  91;

LUFKIN         CLEAR     79  76  90 S3        30.03S
6HR MIN TEMP:  79; 6HR MAX TEMP:  9



USA.gov is the U.S. government's official web portal to all federal, state and local government web resources and services.